PDT,Max TemperatureF,Mean TemperatureF,Min TemperatureF,Max Dew PointF,MeanDew PointF,Min DewpointF,Max Humidity, Mean Humidity, Min Humidity, Max Sea Level PressureIn, Mean Sea Level PressureIn, Min Sea Level PressureIn, Max VisibilityMiles, Mean VisibilityMiles, Min VisibilityMiles, Max Wind SpeedMPH, Mean Wind SpeedMPH, Max Gust SpeedMPH,PrecipitationIn, CloudCover, Events, WindDirDegrees
2012-8-1,91,73,55,49,43,35,72,44,15,30.06,30.00,29.92,10,10,10,14,7,35,0.00,0,,217
2012-8-2,88,76,63,47,43,40,56,38,20,29.99,29.95,29.89,10,10,10,21,9,31,0.00,1,,264
2012-8-3,91,74,56,43,38,34,48,31,14,30.07,30.02,29.96,10,10,10,20,5,24,0.00,0,,360
2012-8-4,96,76,56,49,42,39,55,35,15,30.03,29.96,29.88,10,10,10,10,5,14,0.00,0,,348
2012-8-5,99,80,60,59,47,40,60,37,13,29.98,29.90,29.84,10,10,10,10,5,16,0.00,0,,281
2012-8-6,99,82,64,59,51,45,60,38,16,30.01,29.96,29.88,10,10,10,13,5,17,0.00,0,,61
2012-8-7,104,84,64,50,45,39,52,32,12,30.01,29.91,29.80,10,10,10,16,8,21,0.00,0,,41
2012-8-8,97,80,63,59,44,28,68,39,9,30.02,29.92,29.81,10,10,10,21,9,25,0.00,0,,220
2012-8-9,88,71,53,49,46,41,83,52,20,30.08,30.02,29.93,10,10,10,9,3,10,0.00,0,,218
2012-8-10,94,72,50,49,40,30,62,37,11,29.98,29.91,29.85,10,10,10,13,6,16,0.00,0,,248
2012-8-11,95,74,55,52,45,32,77,38,11,30.00,29.94,29.90,10,10,10,10,3,,0.00,0,,220
2012-8-12,99,80,61,47,43,39,51,33,14,29.97,29.90,29.82,10,10,10,13,7,16,0.00,0,,332
2012-8-13,100,79,58,47,40,31,52,31,9,29.92,29.86,29.80,10,10,8,16,5,21,0.00,0,,265
2012-8-14,99,82,65,49,44,35,48,33,17,29.85,29.78,29.68,10,9,7,18,9,23,0.00,0,,233
2012-8-15,93,81,68,46,42,37,39,27,14,29.97,29.91,29.81,10,10,10,24,12,30,0.00,0,,28
2012-8-16,94,77,60,49,42,35,52,33,14,30.01,29.96,29.90,10,10,10,15,7,29,0.00,0,,348
2012-8-17,96,75,54,50,41,34,65,39,13,30.03,29.96,29.90,10,10,10,12,4,15,0.00,0,,286
2012-8-18,100,80,59,52,41,35,48,30,11,29.95,29.87,29.77,10,10,10,17,8,21,0.00,0,,320
2012-8-19,97,78,59,53,48,43,62,40,18,29.87,29.81,29.76,10,10,10,12,5,14,0.00,0,,201
2012-8-20,92,77,61,54,46,38,69,43,16,29.91,29.85,29.81,10,10,10,13,6,15,0.00,0,,164
2012-8-21,91,76,61,52,46,40,63,41,18,29.85,29.81,29.75,10,10,10,16,8,20,0.00,1,,210
2012-8-22,81,68,54,48,43,39,62,43,23,29.97,29.91,29.84,10,10,10,15,6,20,0.00,0,,206
2012-8-23,83,68,52,47,39,26,77,45,13,29.92,29.88,29.82,10,10,10,23,9,83,0.00,0,,237
2012-8-24,76,64,51,39,35,32,63,42,21,30.11,30.03,29.93,10,10,7,16,7,22,0.00,0,,239
2012-8-25,86,67,47,40,34,29,63,38,12,29.99,29.89,29.77,10,10,10,13,6,18,0.00,0,,36
2012-8-26,88,71,53,46,39,34,50,33,16,29.78,29.74,29.67,10,10,10,12,6,15,0.00,0,,355
2012-8-27,85,72,58,49,46,42,67,45,23,29.99,29.92,29.79,10,10,10,17,7,22,0.00,0,,170
2012-8-28,86,69,52,48,42,34,66,45,23,29.97,29.92,29.82,10,10,10,24,8,32,0.00,0,,245
2012-8-29,78,64,49,46,41,37,71,48,24,30.08,30.01,29.97,10,10,10,15,6,20,0.00,0,,209
2012-8-30,80,61,42,45,40,35,83,53,23,30.01,29.92,29.81,10,10,10,10,3,14,0.00,0,,15
2012-8-31,85,66,46,43,36,30,56,36,15,29.83,29.79,29.74,10,10,10,14,5,17,0.00,0,,303